Weather Roundup
Issued by NWS

Home | Current Version | Previous Version | Graphics & Text | Print | Product List | Glossary Off
Versions: 1 2 3 4 5 6 7 8 9 10 11 12 13 14 15 16 17 18 19 20 21 22 23 24 25 26 27 28 29 30 31 32 33 34 35 36 37 38 39 40 41 42 43 44 45 46 47 48 49 50

826
NZUS93 KARX 260159
HRRWXR

CURRENT HOURLY OBSERVATIONS ACROSS
MUCH OF THE UPPER MISSISSIPPI VALLEY
NATIONAL WEATHER SERVICE LA CROSSE WI
900 PM CDT TUE APR 25 2017


...SOUTHEAST MINNESOTA...


CITY           SKY/WX    TMP DP  RH WIND       PRES   REMARKS
ROCHESTER      CLOUDY    54  52  93 NE12      29.51F
ROCHESTER/MAYO CLOUDY    55  55 100 NE6       29.51F
WINONA         CLOUDY    55  52  88 CALM      29.53F
AUSTIN         DRIZZLE   54  50  87 N7        29.50S
ALBERT LEA     CLOUDY    48  46  93 N10       29.51S FOG
DODGE CENTER   CLOUDY    52  52 100 N10       29.52F FOG
PRESTON        CLOUDY    55  51  86 NE10      29.50S
OWATONNA       LGT RAIN  50  48  93 N8        29.54F
FARIBAULT      DRIZZLE   52  50  93 N5        29.56F
$$

...ELSEWHERE IN MINNESOTA...


CITY           SKY/WX    TMP DP  RH WIND       PRES   REMARKS
MINNEAPOLIS    LGT RAIN  54  51  90 NE8       29.57S FOG
INTNL FALLS    CLOUDY    29  23  78 NE15G23   29.89R WCI  18
DULUTH         LGT RAIN  41  40  96 NE7       29.70S FOG
RED WING       DRIZZLE   55  54  94 E3        29.54R
REDWOOD FALLS  LGT RAIN  46  43  89 NW12      29.59R
MANKATO        LGT RAIN  49  48  97 NE9       29.55F FOG
WORTHINGTON    LGT RAIN  39  37  92 NW21      29.60S FOG     WCI  29
FAIRMONT       LGT RAIN  45  44  97 NW14      29.55S FOG
$$

...SOUTHWEST WISCONSIN...


CITY           SKY/WX    TMP DP  RH WIND       PRES   REMARKS
LA CROSSE      CLOUDY    60  53  77 CALM      29.51S
PRAIRIE DU CHI CLOUDY    68  42  38 SE3       29.46S
BOSCOBEL       CLOUDY    67  46  47 NE3       29.48S
LONE ROCK      NOT AVBL
PLATTEVILLE    CLOUDY    68  48  47 E7        29.49S
FORT MC COY    CLOUDY    57  54  90 NE5       29.54S
MAUSTON-NEW LI CLOUDY    63  50  62 CALM      29.53R
VIROQUA        CLOUDY    63  46  54 E8        29.51S
WIS DELLS      CLOUDY    66  48  52 E9        29.53R
$$

...ELSEWHERE IN WISCONSIN...


CITY           SKY/WX    TMP DP  RH WIND       PRES   REMARKS
MILWAUKEE      CLOUDY    59  50  72 SE10      29.59R
MADISON        CLOUDY    67  49  52 E13       29.52S
GREEN BAY      CLOUDY    63  54  72 SE10      29.61R
EAU CLAIRE     CLOUDY    55  54  96 NE7       29.55F
BLACK RVR FLS  LGT RAIN  56  56 100 NE7       29.54S
MEDFORD        DRIZZLE   53  52  95 N6        29.60F
WAUSAU         CLOUDY    57  53  86 N7        29.58S
WIS RAPIDS     CLOUDY    60  52  74 NE9       29.58R
MARSHFIELD     CLOUDY    56  51  84 NE8       29.57R
RICE LAKE      LGT RAIN  55  54  94 E5        29.62S
$$

...NORTHEAST IOWA...


CITY           SKY/WX    TMP DP  RH WIND       PRES   REMARKS
WATERLOO       CLOUDY    63  50  62 NE6       29.43F
DUBUQUE        CLOUDY    69  43  38 SE9       29.48S
DECORAH        CLOUDY    63  50  63 NE8       29.47R
MASON CITY     CLOUDY    52  50  93 N14       29.50S
CHARLES CITY   CLOUDY    59  57  94 NE6       29.47R
OELWEIN        CLOUDY    66  48  52 VRB3      29.46S
$$

...ELSEWHERE IN IOWA...


CITY           SKY/WX    TMP DP  RH WIND       PRES   REMARKS
DES MOINES     LGT RAIN  57  49  74 NW16      29.46R
IOWA CITY      CLOUDY    71  49  45 E3        29.45S
FORT DODGE     CLOUDY    46  39  76 NW8       29.52S
MARSHALLTOWN   CLOUDY    63  51  65 CALM      29.43S
CEDAR RAPIDS   CLOUDY    65  51  60 E3        29.43F
$$

...NORTHERN ILLINOIS...


CITY           SKY/WX    TMP DP  RH WIND       PRES   REMARKS
CHICAGO-OHARE  CLOUDY    73  51  46 SE10      29.55R
CHICAGO-MIDWAY CLOUDY    74  52  46 SE8       29.56R
MOLINE         CLOUDY    70  48  45 SE6       29.46R
ROCKFORD       CLOUDY    71  49  45 SE10      29.54R
PEORIA         CLOUDY    73  48  41 S13       29.52R
$$

NOTE: "FAIR" INDICATES FEW OR NO CLOUDS BELOW 12,000 FEET WITH NO
SIGNIFICANT WEATHER AND/OR OBSTRUCTIONS TO VISIBILITY. WIND
SPEEDS ARE IN MILES-PER-HOUR.




USA.gov is the U.S. government's official web portal to all federal, state and local government web resources and services.